Location: Ettringen
(48.1054°N, 10.6545°E)
Time: 00:42:02
(UTC+00:00)

Cosmos 304 Rocket - Pass Details

Date: 18 November 2025
Orbit: 668 x 677 km, 74.0° (Epoch: 05 December)

Event Time Altitude Azimuth Distance (km) Brightness Sun altitude
Rises 17:01:48 0° 176° (S) 3,001 7.2 -14.2°
Reaches altitude 10° 17:04:14 10° 167° (SSE) 2,094 6.3 -14.6°
Maximum altitude 17:08:28 34° 103° (ESE) 1,098 4.3 -15.3°
Enters shadow 17:10:22 25° 60° (ENE) 1,363 4.7 -15.6°
